| time (UTC) | temp C | wind direction | speed KPH | gust KPH | rain 1hr cm | rain 24hr cm | rain mn cm | humidity % | barometer mb |
| 20260510104554 | 8 | 35 | 1.6 | 6.4 | 0.00 | 0.86 | 0.00 | 88 | 1012.2 |
| 20260510103044 | 8 | 22 | 1.6 | 8.0 | 0.00 | 0.86 | 0.00 | 88 | 1011.8 |
| 20260510101541 | 8 | 28 | 3.2 | 6.4 | 0.00 | 0.86 | 0.00 | 87 | 1011.5 |
| 20260510100039 | 8 | 20 | 1.6 | 4.8 | 0.00 | 0.86 | 0.00 | 87 | 1011.3 |
| 20260510094538 | 8 | 19 | 0.0 | 3.2 | 0.00 | 0.86 | 0.00 | 88 | 1011.3 |
| 20260510093037 | 8 | 19 | 0.0 | 0.0 | 0.00 | 0.86 | 0.00 | 87 | 1011.1 |
| 20260510091537 | 8 | 19 | 0.0 | 0.0 | 0.00 | 0.86 | 0.00 | 87 | 1010.7 |
| 20260510090031 | 8 | 19 | 0.0 | 0.0 | 0.00 | 0.86 | 0.00 | 86 | 1010.5 |
| 20260510084534 | 8 | 19 | 0.0 | 0.0 | 0.00 | 0.86 | 0.00 | 86 | 1010.3 |
| 20260510083027 | 8 | 19 | 0.0 | 0.0 | 0.00 | 0.86 | 0.00 | 84 | 1010.2 |
| 20260510081524 | 8 | 19 | 0.0 | 0.0 | 0.00 | 0.86 | 0.00 | 83 | 1010.0 |
| 20260510080021 | 9 | 19 | 0.0 | 0.0 | 0.00 | 0.86 | 0.00 | 82 | 1009.8 |
| 20260510074519 | 9 | 19 | 0.0 | 1.6 | 0.00 | 0.89 | 0.00 | 81 | 1009.4 |
| 20260510073017 | 9 | 18 | 0.0 | 1.6 | 0.00 | 0.89 | 0.00 | 81 | 1009.2 |
| 20260510071519 | 9 | 17 | 0.0 | 8.0 | 0.00 | 0.89 | 0.00 | 82 | 1009.2 |
| 20260510070015 | 10 | 360 | 1.6 | 9.7 | 0.00 | 0.89 | 0.00 | 86 | 1008.8 |
| 20260510064526 | 10 | 21 | 1.6 | 12.9 | 0.00 | 0.94 | 0.00 | 90 | 1008.5 |
| 20260510063008 | 10 | 10 | 3.2 | 14.5 | 0.00 | 0.94 | 0.00 | 91 | 1008.5 |
| 20260510061509 | 11 | 26 | 1.6 | 14.5 | 0.00 | 0.94 | 0.00 | 92 | 1008.6 |
| 20260510060100 | 12 | 173 | 0.0 | 0.0 | 0.00 | 0.94 | 0.00 | 93 | 1008.2 |
| 20260510054557 | 11 | 173 | 0.0 | 0.0 | 0.00 | 1.17 | 0.00 | 92 | 1007.9 |
| 20260510053056 | 11 | 173 | 0.0 | 0.0 | 0.00 | 1.17 | 0.00 | 92 | 1007.9 |
| 20260510051557 | 12 | 173 | 0.0 | 0.0 | 0.00 | 1.17 | 0.00 | 92 | 1007.6 |
| 20260510050052 | 12 | 173 | 0.0 | 0.0 | 0.00 | 1.17 | 0.00 | 92 | 1007.4 |
| 20260510044549 | 12 | 173 | 0.0 | 1.6 | 0.00 | 1.30 | 0.00 | 92 | 1006.7 |
| 20260510043048 | 12 | 173 | 0.0 | 1.6 | 0.00 | 1.30 | 0.00 | 91 | 1006.5 |
| 20260510041545 | 12 | 172 | 0.0 | 0.0 | 0.03 | 1.30 | 0.00 | 91 | 1006.6 |
| 20260510040133 | 12 | 172 | 0.0 | 0.0 | 0.10 | 1.30 | 0.00 | 91 | 1006.4 |
| 20260510034632 | 12 | 172 | 0.0 | 0.0 | 0.10 | 1.32 | 1.30 | 91 | 1006.4 |
| 20260510033140 | 12 | 173 | 0.0 | 3.2 | 0.10 | 1.32 | 1.30 | 91 | 1006.7 |
| 20260510031553 | 12 | 178 | 0.0 | 11.3 | 0.13 | 1.30 | 1.27 | 92 | 1006.7 |
| 20260510030053 | 12 | 238 | 0.0 | 1.6 | 0.33 | 1.22 | 1.19 | 91 | 1006.6 |
| 20260510024554 | 12 | 281 | 0.0 | 0.0 | 0.33 | 1.22 | 1.19 | 91 | 1006.6 |
| 20260510023051 | 12 | 281 | 0.0 | 1.6 | 0.33 | 1.22 | 1.19 | 91 | 1006.2 |
| 20260510021551 | 12 | 192 | 1.6 | 9.7 | 0.25 | 1.14 | 1.12 | 91 | 1007.5 |
| 20260510020055 | 12 | 171 | 0.0 | 0.0 | 0.00 | 0.89 | 0.86 | 90 | 1006.1 |
| 20260510014550 | 12 | 171 | 0.0 | 0.0 | 0.00 | 0.94 | 0.86 | 90 | 1005.9 |
| 20260510013049 | 12 | 171 | 0.0 | 0.0 | 0.00 | 0.94 | 0.86 | 90 | 1005.8 |
| 20260510011549 | 12 | 171 | 0.0 | 0.0 | 0.00 | 0.94 | 0.86 | 89 | 1005.6 |
| 20260510010049 | 12 | 171 | 0.0 | 0.0 | 0.00 | 0.94 | 0.86 | 89 | 1005.6 |
| 20260510004548 | 12 | 171 | 0.0 | 0.0 | 0.00 | 1.04 | 0.86 | 89 | 1005.4 |
| 20260510003100 | 13 | 171 | 0.0 | 0.0 | 0.03 | 1.04 | 0.86 | 89 | 1005.5 |
| 20260510001547 | 13 | 171 | 0.0 | 1.6 | 0.05 | 1.04 | 0.86 | 88 | 1005.3 |
| 20260510000048 | 13 | 169 | 0.0 | 6.4 | 0.36 | 1.04 | 0.86 | 87 | 1005.5 |
| 20260509234547 | 13 | 198 | 1.6 | 8.0 | 0.43 | 1.19 | 0.86 | 85 | 1005.5 |
| 20260509233046 | 14 | 26 | 0.0 | 3.2 | 0.41 | 1.17 | 0.84 | 81 | 1005.8 |
| 20260509231547 | 15 | 313 | 0.0 | 14.5 | 0.36 | 1.12 | 0.79 | 77 | 1005.7 |
| 20260509230051 | 17 | 257 | 0.0 | 12.9 | 0.05 | 0.81 | 0.48 | 68 | 1006.1 |
| 20260509224554 | 19 | 317 | 0.0 | 16.1 | 0.00 | 1.07 | 0.43 | 56 | 1003.5 |
| 20260509223048 | 19 | 192 | 6.4 | 17.7 | 0.00 | 1.07 | 0.43 | 56 | 1002.8 |
| 20260509221542 | 19 | 46 | 0.0 | 19.3 | 0.00 | 1.07 | 0.43 | 57 | 1002.9 |
| 20260509220042 | 19 | 200 | 4.8 | 20.9 | 0.00 | 1.07 | 0.43 | 57 | 1002.9 |
| 20260509214543 | 19 | 228 | 6.4 | 27.4 | 0.00 | 1.19 | 0.43 | 57 | 1002.9 |
| 20260509213042 | 20 | 210 | 4.8 | 16.1 | 0.00 | 1.19 | 0.43 | 57 | 1003.0 |
| 20260509211540 | 20 | 115 | 9.7 | 19.3 | 0.00 | 1.19 | 0.43 | 57 | 1002.8 |
| 20260509210044 | 20 | 190 | 1.6 | 19.3 | 0.00 | 1.19 | 0.43 | 57 | 1003.2 |
| 20260509204535 | 20 | 224 | 6.4 | 24.1 | 0.00 | 1.27 | 0.43 | 59 | 1003.5 |
| 20260509203045 | 20 | 207 | 3.2 | 29.0 | 0.00 | 1.27 | 0.43 | 61 | 1003.7 |
| 20260509201532 | 20 | 224 | 3.2 | 17.7 | 0.00 | 1.27 | 0.43 | 61 | 1004.0 |
| 20260509200032 | 20 | 226 | 3.2 | 22.5 | 0.00 | 1.27 | 0.43 | 60 | 1004.1 |
| 20260509194533 | 20 | 223 | 6.4 | 24.1 | 0.00 | 1.27 | 0.43 | 59 | 1004.4 |
| 20260509193029 | 20 | 250 | 3.2 | 20.9 | 0.00 | 1.27 | 0.43 | 61 | 1004.5 |
| 20260509191526 | 19 | 256 | 0.0 | 14.5 | 0.00 | 1.27 | 0.43 | 64 | 1004.7 |
| 20260509190023 | 19 | 197 | 3.2 | 16.1 | 0.00 | 1.27 | 0.43 | 64 | 1005.1 |
| 20260509184534 | 18 | 200 | 6.4 | 20.9 | 0.00 | 1.27 | 0.43 | 63 | 1005.2 |
| 20260509183021 | 18 | 211 | 1.6 | 16.1 | 0.00 | 1.27 | 0.43 | 66 | 1005.2 |
| 20260509181520 | 18 | 213 | 6.4 | 14.5 | 0.00 | 1.27 | 0.43 | 64 | 1005.2 |
| 20260509180022 | 18 | 213 | 6.4 | 20.9 | 0.00 | 1.27 | 0.43 | 64 | 1005.1 |
| 20260509174516 | 18 | 202 | 3.2 | 16.1 | 0.00 | 1.27 | 0.43 | 65 | 1005.2 |
| 20260509173017 | 17 | 202 | 4.8 | 16.1 | 0.00 | 1.27 | 0.43 | 65 | 1005.6 |
| 20260509171514 | 17 | 200 | 6.4 | 16.1 | 0.00 | 1.27 | 0.43 | 65 | 1005.5 |
| 20260509170014 | 17 | 208 | 3.2 | 12.9 | 0.00 | 1.27 | 0.43 | 67 | 1005.4 |
| 20260509164509 | 17 | 211 | 3.2 | 12.9 | 0.00 | 1.27 | 0.43 | 67 | 1005.4 |
| 20260509163007 | 17 | 186 | 8.0 | 19.3 | 0.00 | 1.27 | 0.43 | 69 | 1005.6 |
| 20260509161505 | 16 | 245 | 0.0 | 11.3 | 0.00 | 1.27 | 0.43 | 67 | 1006.0 |
| 20260509160005 | 17 | 217 | 4.8 | 17.7 | 0.00 | 1.27 | 0.43 | 70 | 1006.1 |
| 20260509154614 | 16 | 233 | 0.0 | 11.3 | 0.00 | 1.27 | 0.43 | 74 | 1006.1 |
| 20260509153109 | 16 | 207 | 1.6 | 12.9 | 0.00 | 1.27 | 0.43 | 78 | 1006.1 |
| 20260509151601 | 16 | 196 | 1.6 | 11.3 | 0.00 | 1.27 | 0.43 | 86 | 1005.9 |
| 20260509150050 | 14 | 186 | 0.0 | 14.5 | 0.00 | 1.27 | 0.43 | 90 | 1006.0 |
| 20260509144546 | 13 | 208 | 0.0 | 12.9 | 0.00 | 1.27 | 0.43 | 92 | 1006.1 |
| 20260509143046 | 13 | 204 | 0.0 | 8.0 | 0.00 | 1.27 | 0.43 | 94 | 1006.0 |
| 20260509141545 | 12 | 205 | 0.0 | 6.4 | 0.00 | 1.27 | 0.43 | 94 | 1006.0 |
| 20260509140037 | 12 | 200 | 0.0 | 8.0 | 0.00 | 1.27 | 0.43 | 94 | 1006.1 |
| 20260509134536 | 12 | 185 | 0.0 | 6.4 | 0.00 | 1.27 | 0.43 | 94 | 1006.2 |
| 20260509133048 | 12 | 193 | 0.0 | 9.7 | 0.00 | 1.27 | 0.43 | 95 | 1006.1 |
| 20260509131520 | 12 | 157 | 1.6 | 14.5 | 0.00 | 1.27 | 0.43 | 95 | 1006.2 |
| 20260509130033 | 11 | 173 | 0.0 | 8.0 | 0.00 | 1.27 | 0.43 | 95 | 1006.2 |
| 20260509124532 | 11 | 201 | 1.6 | 8.0 | 0.00 | 1.27 | 0.43 | 95 | 1006.3 |
| 20260509123033 | 11 | 180 | 0.0 | 8.0 | 0.00 | 1.27 | 0.43 | 95 | 1006.5 |
| 20260509121531 | 11 | 167 | 1.6 | 8.0 | 0.00 | 1.27 | 0.43 | 95 | 1006.6 |
| 20260509120026 | 11 | 184 | 0.0 | 8.0 | 0.00 | 1.27 | 0.43 | 95 | 1006.5 |
| 20260509114532 | 11 | 177 | 0.0 | 4.8 | 0.00 | 1.27 | 0.43 | 95 | 1006.6 |
| 20260509113024 | 11 | 175 | 0.0 | 6.4 | 0.00 | 1.27 | 0.43 | 95 | 1006.6 |
| 20260509111523 | 11 | 185 | 0.0 | 4.8 | 0.00 | 1.27 | 0.43 | 95 | 1006.4 |
| 20260509110020 | 11 | 184 | 0.0 | 6.4 | 0.00 | 1.27 | 0.43 | 95 | 1006.5 |